Time,TemperatureF,DewpointF,PressureIn,WindDirection,WindDirectionDegrees,WindSpeedMPH,WindSpeedGustMPH,Humidity,HourlyPrecipIn,Conditions,Clouds,dailyrainin,SoftwareType,DateUTC
2013-03-08 00:01:00,33.0,32.0,30.03,NNE,25,0.0,0.0,95,0.00,,,0.01,,2013-03-08 08:01:00,
2013-03-08 00:11:00,33.0,32.0,30.03,NNE,25,0.0,0.0,95,0.00,,,0.01,,2013-03-08 08:11:00,
2013-03-08 00:21:00,33.0,32.0,30.03,NNE,25,0.0,0.0,95,0.00,,,0.01,,2013-03-08 08:21:00,
2013-03-08 00:31:00,33.0,32.0,30.03,NNE,25,0.0,0.0,95,0.00,,,0.01,,2013-03-08 08:31:00,
2013-03-08 00:41:00,33.0,32.0,30.03,NNE,25,0.0,0.0,95,0.00,,,0.01,,2013-03-08 08:41:00,
2013-03-08 00:52:00,33.0,32.0,30.04,NNE,25,0.0,0.0,95,0.00,,,0.00,,2013-03-08 08:52:00,
2013-03-08 01:02:00,33.0,32.0,30.04,NNE,25,0.0,0.0,95,0.00,,,0.00,,2013-03-08 09:02:00,
2013-03-08 01:11:00,33.0,32.0,30.04,NNE,25,0.0,0.0,95,0.00,,,0.00,,2013-03-08 09:11:00,
2013-03-08 01:21:00,32.0,31.0,30.04,NNE,25,0.0,0.0,95,0.00,,,0.00,,2013-03-08 09:21:00,
2013-03-08 01:31:00,32.0,31.0,30.04,NNE,25,0.0,0.0,95,0.00,,,0.00,,2013-03-08 09:31:00,
2013-03-08 01:41:00,32.0,31.0,30.04,NNE,25,0.0,0.0,95,0.00,,,0.00,,2013-03-08 09:41:00,
2013-03-08 01:51:00,32.0,31.0,30.04,NNE,25,0.0,0.0,95,0.00,,,0.00,,2013-03-08 09:51:00,
2013-03-08 02:01:00,31.0,30.0,30.04,NNE,25,0.0,0.0,95,0.00,,,0.00,,2013-03-08 10:01:00,
2013-03-08 02:11:00,31.0,30.0,30.04,NNE,25,0.0,0.0,95,0.00,,,0.00,,2013-03-08 10:11:00,
2013-03-08 02:21:00,31.0,30.0,30.04,NNE,25,0.0,0.0,95,0.00,,,0.00,,2013-03-08 10:21:00,
2013-03-08 02:31:00,31.0,30.0,30.03,NNE,25,0.0,0.0,96,0.00,,,0.00,,2013-03-08 10:31:00,
2013-03-08 02:41:00,31.0,30.0,30.03,NNE,25,0.0,0.0,96,0.00,,,0.00,,2013-03-08 10:41:00,
2013-03-08 02:51:00,31.0,30.0,30.03,NNE,25,0.0,0.0,95,0.00,,,0.00,,2013-03-08 10:51:00,
2013-03-08 03:01:00,31.0,30.0,30.03,NNE,25,0.0,0.0,95,0.00,,,0.00,,2013-03-08 11:01:00,
2013-03-08 03:11:00,31.0,30.0,30.03,NNE,25,0.0,0.0,95,0.00,,,0.00,,2013-03-08 11:11:00,
2013-03-08 03:21:00,31.0,30.0,30.03,NNE,25,0.0,0.0,96,0.00,,,0.00,,2013-03-08 11:21:00,
2013-03-08 03:32:00,31.0,30.0,30.03,NNE,25,0.0,0.0,96,0.00,,,0.00,,2013-03-08 11:32:00,
2013-03-08 03:41:00,31.0,30.0,30.03,NNE,25,0.0,0.0,96,0.00,,,0.00,,2013-03-08 11:41:00,
2013-03-08 03:52:00,31.0,30.0,30.03,NNE,25,0.0,0.0,96,0.00,,,0.00,,2013-03-08 11:52:00,
2013-03-08 04:01:00,31.0,30.0,30.03,NNE,25,0.0,0.0,96,0.00,,,0.00,,2013-03-08 12:01:00,
2013-03-08 04:11:00,31.0,30.0,30.03,NNE,25,0.0,0.0,96,0.00,,,0.00,,2013-03-08 12:11:00,
2013-03-08 04:22:00,31.0,30.0,30.03,NNE,25,0.0,0.0,96,0.00,,,0.00,,2013-03-08 12:22:00,
2013-03-08 04:32:00,31.0,30.0,30.04,NNE,25,0.0,0.0,96,0.00,,,0.00,,2013-03-08 12:32:00,
2013-03-08 04:42:00,31.0,30.0,30.04,NNE,25,0.0,0.0,96,0.00,,,0.00,,2013-03-08 12:42:00,
2013-03-08 04:52:00,31.0,30.0,30.04,NNE,25,0.0,0.0,96,0.00,,,0.00,,2013-03-08 12:52:00,
2013-03-08 05:01:00,30.0,29.0,30.04,NNE,25,0.0,0.0,96,0.00,,,0.00,,2013-03-08 13:01:00,
2013-03-08 05:11:00,30.0,29.0,30.04,NNE,25,0.0,0.0,96,0.00,,,0.00,,2013-03-08 13:11:00,
2013-03-08 05:21:00,30.0,29.0,30.04,NNE,25,0.0,0.0,96,0.00,,,0.00,,2013-03-08 13:21:00,
2013-03-08 05:32:00,30.0,29.0,30.04,NNE,25,0.0,0.0,96,0.00,,,0.00,,2013-03-08 13:32:00,
2013-03-08 05:42:00,30.0,29.0,30.04,NNE,25,0.0,0.0,96,0.00,,,0.00,,2013-03-08 13:42:00,
2013-03-08 05:52:00,30.0,29.0,30.04,NNE,25,0.0,0.0,96,0.00,,,0.00,,2013-03-08 13:52:00,
2013-03-08 06:02:00,30.0,29.0,30.05,NNE,25,0.0,0.0,96,0.00,,,0.00,,2013-03-08 14:02:00,
2013-03-08 06:11:00,30.0,29.0,30.05,NNE,25,0.0,0.0,96,0.00,,,0.00,,2013-03-08 14:11:00,
2013-03-08 06:21:00,30.0,29.0,30.05,NNE,25,0.0,0.0,96,0.00,,,0.00,,2013-03-08 14:21:00,
2013-03-08 06:32:00,30.0,29.0,30.05,NNE,25,0.0,0.0,96,0.00,,,0.00,,2013-03-08 14:32:00,
2013-03-08 06:42:00,30.0,29.0,30.05,NNE,25,0.0,0.0,96,0.00,,,0.00,,2013-03-08 14:42:00,
2013-03-08 06:52:00,30.0,29.0,30.05,NNE,25,0.0,0.0,96,0.00,,,0.00,,2013-03-08 14:52:00,
2013-03-08 07:02:00,29.0,28.0,30.06,NNE,25,0.0,0.0,96,0.00,,,0.00,,2013-03-08 15:02:00,
2013-03-08 07:11:00,29.0,28.0,30.06,NNE,25,0.0,0.0,96,0.00,,,0.00,,2013-03-08 15:11:00,
2013-03-08 07:21:00,29.0,28.0,30.06,NNE,25,0.0,0.0,96,0.00,,,0.00,,2013-03-08 15:21:00,
2013-03-08 07:31:00,30.0,29.0,30.06,NNE,25,0.0,0.0,96,0.00,,,0.00,,2013-03-08 15:31:00,
2013-03-08 07:42:00,30.0,29.0,30.06,NNE,25,0.0,0.0,96,0.00,,,0.00,,2013-03-08 15:42:00,
2013-03-08 07:52:00,30.0,29.0,30.06,NNE,25,0.0,0.0,96,0.00,,,0.00,,2013-03-08 15:52:00,
2013-03-08 08:01:00,30.0,29.0,30.06,NNE,25,0.0,1.0,97,0.00,,,0.00,,2013-03-08 16:01:00,
2013-03-08 08:11:00,30.0,29.0,30.06,NNE,25,0.0,1.0,97,0.00,,,0.00,,2013-03-08 16:11:00,
2013-03-08 08:21:00,31.0,30.0,30.06,NNE,25,0.0,0.0,97,0.00,,,0.00,,2013-03-08 16:21:00,
2013-03-08 08:31:00,33.0,32.0,30.06,NNE,25,0.0,0.0,97,0.00,,,0.00,,2013-03-08 16:31:00,
2013-03-08 08:41:00,33.0,32.0,30.06,NNE,25,0.0,0.0,97,0.00,,,0.00,,2013-03-08 16:41:00,
2013-03-08 08:51:00,34.0,33.0,30.07,SW,224,2.0,4.0,97,0.00,,,0.00,,2013-03-08 16:51:00,
2013-03-08 09:02:00,34.0,33.0,30.07,SW,224,2.0,4.0,97,0.00,,,0.00,,2013-03-08 17:02:00,
2013-03-08 09:11:00,34.0,33.0,30.07,SW,224,2.0,4.0,97,0.00,,,0.00,,2013-03-08 17:11:00,
2013-03-08 09:21:00,34.0,33.0,30.07,SW,214,3.0,5.0,96,0.01,,,0.01,,2013-03-08 17:21:00,
2013-03-08 09:32:00,35.0,34.0,30.07,SW,225,2.0,4.0,97,0.01,,,0.01,,2013-03-08 17:32:00,
2013-03-08 09:41:00,35.0,34.0,30.07,SW,225,2.0,4.0,97,0.01,,,0.01,,2013-03-08 17:41:00,
2013-03-08 09:52:00,37.0,36.0,30.07,SSW,211,2.0,3.0,97,0.00,,,0.01,,2013-03-08 17:52:00,
2013-03-08 10:01:00,40.0,39.0,30.07,SSW,209,2.0,4.0,97,0.00,,,0.01,,2013-03-08 18:01:00,
2013-03-08 10:11:00,40.0,39.0,30.07,SSW,209,2.0,4.0,97,0.00,,,0.01,,2013-03-08 18:11:00,
2013-03-08 10:21:00,41.0,40.0,30.07,SSW,202,2.0,4.0,96,0.00,,,0.01,,2013-03-08 18:21:00,
2013-03-08 10:31:00,43.0,41.0,30.08,SSW,202,1.0,2.0,94,0.00,,,0.01,,2013-03-08 18:31:00,
2013-03-08 10:42:00,43.0,41.0,30.08,SSW,202,1.0,2.0,94,0.00,,,0.01,,2013-03-08 18:42:00,
2013-03-08 10:51:00,45.0,44.0,30.08,South,184,0.0,1.0,95,0.00,,,0.01,,2013-03-08 18:51:00,
2013-03-08 11:01:00,48.0,44.0,30.08,NNW,334,0.0,2.0,87,0.00,,,0.01,,2013-03-08 19:01:00,
2013-03-08 11:11:00,48.0,44.0,30.08,NNW,334,0.0,2.0,87,0.00,,,0.01,,2013-03-08 19:11:00,
2013-03-08 11:21:00,49.0,44.0,30.08,SSW,196,1.0,4.0,84,0.00,,,0.01,,2013-03-08 19:21:00,
2013-03-08 11:31:00,50.0,44.0,30.08,NE,40,0.0,4.0,80,0.00,,,0.01,,2013-03-08 19:31:00,
2013-03-08 11:41:00,50.0,44.0,30.08,NE,40,0.0,4.0,80,0.00,,,0.01,,2013-03-08 19:41:00,
2013-03-08 11:51:00,51.0,44.0,30.08,North,5,1.0,4.0,77,0.00,,,0.01,,2013-03-08 19:51:00,
2013-03-08 12:01:00,51.0,44.0,30.08,ENE,77,1.0,7.0,77,0.00,,,0.01,,2013-03-08 20:01:00,
2013-03-08 12:11:00,51.0,44.0,30.08,ENE,77,1.0,7.0,77,0.00,,,0.01,,2013-03-08 20:11:00,
2013-03-08 12:21:00,51.0,44.0,30.09,South,175,0.0,4.0,78,0.00,,,0.01,,2013-03-08 20:21:00,
2013-03-08 12:31:00,51.0,45.0,30.09,ENE,70,1.0,4.0,80,0.00,,,0.01,,2013-03-08 20:31:00,
2013-03-08 12:41:00,51.0,45.0,30.09,ENE,70,1.0,4.0,80,0.00,,,0.01,,2013-03-08 20:41:00,
2013-03-08 12:52:00,51.0,45.0,30.09,ENE,70,1.0,4.0,80,0.00,,,0.01,,2013-03-08 20:52:00,
2013-03-08 13:01:00,53.0,45.0,30.09,ENE,75,1.0,5.0,74,0.00,,,0.01,,2013-03-08 21:01:00,
2013-03-08 13:11:00,53.0,45.0,30.09,ENE,75,1.0,5.0,74,0.00,,,0.01,,2013-03-08 21:11:00,
2013-03-08 13:21:00,53.0,45.0,30.08,SSE,167,1.0,6.0,73,0.00,,,0.01,,2013-03-08 21:21:00,
2013-03-08 13:32:00,53.0,45.0,30.08,SSE,167,1.0,6.0,73,0.00,,,0.01,,2013-03-08 21:32:00,
2013-03-08 13:41:00,53.0,45.0,30.08,SSE,167,1.0,6.0,73,0.00,,,0.01,,2013-03-08 21:41:00,
2013-03-08 13:51:00,53.0,45.0,30.08,SSE,167,1.0,6.0,73,0.00,,,0.01,,2013-03-08 21:51:00,
2013-03-08 14:01:00,54.0,47.0,30.07,ENE,63,1.0,6.0,76,0.00,,,0.01,,2013-03-08 22:01:00,
2013-03-08 14:11:00,54.0,47.0,30.07,ENE,63,1.0,6.0,76,0.00,,,0.01,,2013-03-08 22:11:00,
2013-03-08 14:21:00,54.0,46.0,30.07,NNE,23,1.0,6.0,75,0.00,,,0.01,,2013-03-08 22:21:00,
2013-03-08 14:32:00,54.0,46.0,30.08,SE,131,1.0,6.0,75,0.00,,,0.01,,2013-03-08 22:32:00,
2013-03-08 14:41:00,54.0,46.0,30.08,SE,131,1.0,6.0,75,0.00,,,0.01,,2013-03-08 22:41:00,
2013-03-08 14:52:00,54.0,46.0,30.08,SE,129,1.0,6.0,75,0.00,,,0.01,,2013-03-08 22:52:00,
2013-03-08 15:01:00,54.0,46.0,30.08,ESE,103,2.0,7.0,75,0.00,,,0.01,,2013-03-08 23:01:00,
2013-03-08 15:11:00,54.0,46.0,30.08,ESE,103,2.0,7.0,75,0.00,,,0.01,,2013-03-08 23:11:00,
2013-03-08 15:21:00,55.0,47.0,30.09,SE,135,0.0,5.0,73,0.00,,,0.01,,2013-03-08 23:21:00,
2013-03-08 15:31:00,54.0,46.0,30.09,ENE,60,1.0,11.0,75,0.00,,,0.01,,2013-03-08 23:31:00,
2013-03-08 15:42:00,54.0,46.0,30.09,ENE,60,1.0,11.0,75,0.00,,,0.01,,2013-03-08 23:42:00,
2013-03-08 15:52:00,53.0,46.0,30.09,ENE,69,1.0,8.0,76,0.00,,,0.01,,2013-03-08 23:52:00,
2013-03-08 16:01:00,53.0,46.0,30.09,NE,53,0.0,6.0,76,0.00,,,0.01,,2013-03-09 00:01:00,
2013-03-08 16:11:00,53.0,46.0,30.09,NE,53,0.0,6.0,76,0.00,,,0.01,,2013-03-09 00:11:00,
2013-03-08 16:21:00,52.0,45.0,30.09,East,84,1.0,5.0,77,0.00,,,0.01,,2013-03-09 00:21:00,
2013-03-08 16:31:00,50.0,44.0,30.10,NE,50,1.0,4.0,80,0.00,,,0.01,,2013-03-09 00:31:00,
2013-03-08 16:42:00,50.0,44.0,30.10,NE,50,1.0,4.0,80,0.00,,,0.01,,2013-03-09 00:42:00,
2013-03-08 16:51:00,50.0,44.0,30.10,ESE,104,0.0,3.0,81,0.00,,,0.01,,2013-03-09 00:51:00,
2013-03-08 17:01:00,50.0,44.0,30.10,East,94,0.0,4.0,81,0.00,,,0.01,,2013-03-09 01:01:00,
2013-03-08 17:12:00,50.0,44.0,30.10,East,94,0.0,4.0,81,0.00,,,0.01,,2013-03-09 01:12:00,
2013-03-08 17:21:00,50.0,44.0,30.10,East,94,0.0,4.0,81,0.00,,,0.01,,2013-03-09 01:21:00,
2013-03-08 17:31:00,48.0,43.0,30.11,ENE,74,0.0,4.0,83,0.00,,,0.01,,2013-03-09 01:31:00,
2013-03-08 17:41:00,48.0,43.0,30.11,ENE,74,0.0,4.0,83,0.00,,,0.01,,2013-03-09 01:41:00,
2013-03-08 17:52:00,48.0,43.0,30.12,ENE,66,1.0,5.0,84,0.00,,,0.01,,2013-03-09 01:52:00,
2013-03-08 18:01:00,47.0,43.0,30.12,ESE,104,0.0,5.0,85,0.00,,,0.01,,2013-03-09 02:01:00,
2013-03-08 18:11:00,47.0,43.0,30.12,ESE,104,0.0,5.0,85,0.00,,,0.01,,2013-03-09 02:11:00,
2013-03-08 18:21:00,47.0,43.0,30.14,NE,44,0.0,3.0,86,0.00,,,0.01,,2013-03-09 02:21:00,
2013-03-08 18:31:00,46.0,42.0,30.14,East,90,1.0,6.0,87,0.00,,,0.01,,2013-03-09 02:31:00,
2013-03-08 18:41:00,46.0,43.0,30.14,East,100,0.0,6.0,88,0.00,,,0.01,,2013-03-09 02:41:00,
2013-03-08 18:51:00,46.0,43.0,30.14,East,100,0.0,6.0,88,0.00,,,0.01,,2013-03-09 02:51:00,
2013-03-08 19:01:00,46.0,43.0,30.16,East,98,0.0,1.0,88,0.00,,,0.01,,2013-03-09 03:01:00,
2013-03-08 19:11:00,46.0,43.0,30.16,East,98,0.0,1.0,88,0.00,,,0.01,,2013-03-09 03:11:00,
2013-03-08 19:21:00,46.0,43.0,30.16,ENE,58,0.0,3.0,88,0.00,,,0.01,,2013-03-09 03:21:00,
2013-03-08 19:31:00,46.0,43.0,30.17,NE,42,0.0,4.0,88,0.00,,,0.01,,2013-03-09 03:31:00,
2013-03-08 19:41:00,46.0,43.0,30.17,NE,42,0.0,4.0,88,0.00,,,0.01,,2013-03-09 03:41:00,
2013-03-08 19:52:00,46.0,43.0,30.17,NE,55,0.0,3.0,88,0.00,,,0.01,,2013-03-09 03:52:00,
2013-03-08 20:01:00,46.0,43.0,30.18,ENE,71,0.0,2.0,88,0.00,,,0.01,,2013-03-09 04:01:00,
2013-03-08 20:11:00,46.0,43.0,30.18,ENE,71,0.0,2.0,88,0.00,,,0.01,,2013-03-09 04:11:00,
2013-03-08 20:22:00,46.0,43.0,30.18,ENE,71,0.0,2.0,88,0.00,,,0.01,,2013-03-09 04:22:00,
2013-03-08 20:31:00,46.0,43.0,30.18,ENE,71,0.0,2.0,88,0.00,,,0.01,,2013-03-09 04:31:00,
2013-03-08 20:41:00,46.0,43.0,30.18,ENE,71,0.0,2.0,88,0.00,,,0.01,,2013-03-09 04:41:00,
2013-03-08 20:52:00,46.0,43.0,30.20,East,92,0.0,2.0,89,0.00,,,0.01,,2013-03-09 04:52:00,
2013-03-08 21:02:00,45.0,42.0,30.20,East,92,0.0,1.0,89,0.00,,,0.01,,2013-03-09 05:02:00,
2013-03-08 21:11:00,45.0,42.0,30.20,East,92,0.0,1.0,89,0.00,,,0.01,,2013-03-09 05:11:00,
2013-03-08 21:21:00,45.0,42.0,30.21,East,92,0.0,0.0,89,0.00,,,0.01,,2013-03-09 05:21:00,
2013-03-08 21:31:00,45.0,42.0,30.22,East,92,0.0,2.0,90,0.00,,,0.01,,2013-03-09 05:31:00,
2013-03-08 21:42:00,45.0,42.0,30.22,East,92,0.0,2.0,90,0.00,,,0.01,,2013-03-09 05:42:00,
2013-03-08 21:52:00,45.0,42.0,30.22,East,92,0.0,2.0,90,0.00,,,0.01,,2013-03-09 05:52:00,
2013-03-08 22:01:00,45.0,42.0,30.22,ENE,57,0.0,1.0,90,0.00,,,0.01,,2013-03-09 06:01:00,
2013-03-08 22:11:00,45.0,42.0,30.22,ENE,57,0.0,1.0,90,0.00,,,0.01,,2013-03-09 06:11:00,
2013-03-08 22:22:00,45.0,42.0,30.22,ENE,57,0.0,1.0,90,0.00,,,0.01,,2013-03-09 06:22:00,
2013-03-08 22:31:00,45.0,42.0,30.23,ENE,57,0.0,0.0,90,0.00,,,0.01,,2013-03-09 06:31:00,
2013-03-08 22:41:00,45.0,42.0,30.23,ENE,57,0.0,0.0,90,0.00,,,0.01,,2013-03-09 06:41:00,
2013-03-08 22:52:00,45.0,43.0,30.23,ENE,57,0.0,0.0,91,0.00,,,0.01,,2013-03-09 06:52:00,
2013-03-08 23:01:00,45.0,43.0,30.23,ENE,57,0.0,0.0,91,0.00,,,0.01,,2013-03-09 07:01:00,
2013-03-08 23:11:00,45.0,43.0,30.23,ENE,57,0.0,0.0,91,0.00,,,0.01,,2013-03-09 07:11:00,
2013-03-08 23:21:00,45.0,43.0,30.23,ENE,57,0.0,0.0,91,0.00,,,0.01,,2013-03-09 07:21:00,
2013-03-08 23:31:00,44.0,42.0,30.24,ENE,57,0.0,0.0,91,0.00,,,0.01,,2013-03-09 07:31:00,
2013-03-08 23:41:00,44.0,42.0,30.24,ENE,57,0.0,0.0,91,0.00,,,0.01,,2013-03-09 07:41:00,
2013-03-08 23:52:00,44.0,42.0,30.24,ENE,57,0.0,0.0,92,0.00,,,0.01,,2013-03-09 07:52:00,